Weather History for KLHX - January, 2014

Change the Weather History Date:

Sunday, January 26, 2014

  Actual Average Record
Temperature  
Mean Temperature 46 °F 31 °F  
Max Temperature 65 °F 45 °F 78 °F (1982)
Min Temperature 27 °F 18 °F -5 °F (1966)
Degree Days  
Heating Degree Days 19 34  
Month to date heating degree days 838 888  
Since 1 July heating degree days 2917 3091  
Cooling Degree Days 0 0  
Month to date cooling degree days 0 0  
Year to date cooling degree days 0 0  
Moisture  
Dew Point 21 °F    
Average Humidity 47    
Maximum Humidity 78    
Minimum Humidity 15    
Precipitation  
Precipitation 0.00 in 0.01 in 0.28 in (1946)
Month to date precipitation 0.02 0.24  
Year to date precipitation 0.02 0.24  
Sea Level Pressure  
Sea Level Pressure 29.91 in    
Wind  
Wind Speed 15 mph (NNE)    
Max Wind Speed 38 mph    
Max Gust Speed 49 mph    
Visibility 7 miles    
Events Rain    
T = Trace of Precipitation, MM = Missing Value Source: NWS Daily Summary

Daily Weather History Graph

Daily Weather History Graph

Search for Another Location

Airport or City:

Trip Planner

Search our weather history database for the weather conditions in past years. The results will help you decide how hot, cold, wet, or windy it might be!

Date:

Astronomy

Jan. 26, 2014 Rise Set
Actual Time 7:03 AM MST 5:10 PM MST
Civil Twilight 6:35 AM MST 5:38 PM MST
Nautical Twilight 6:03 AM MST 6:10 PM MST
Astronomical Twilight 5:32 AM MST 6:41 PM MST
Moon 2:42 AM MST (1/26) 1:02 PM MST (1/26)
Length of Visible Light 11h 03m
Length of Day
10h 07m
Waning Crescent, 23% of the Moon is Illuminated
Jan 26
Waning Crescent
Jan 30
New
Feb 6
First Quarter
Feb 14
Full
Feb 22
Last Quarter

Hourly Weather History & Observations

Time (MST) Temp. Windchill Dew Point Humidity Pressure Visibility Wind Dir Wind Speed Gust Speed Precip Events Conditions
12:53 AM 30.9 °F 19.1 °F 24.1 °F 76% 29.84 in 10.0 mi West 18.4 mph - N/A   Clear
1:53 AM 32.0 °F 21.2 °F 23.0 °F 69% 29.85 in 10.0 mi West 16.1 mph - N/A   Clear
2:53 AM 34.0 °F 25.0 °F 21.9 °F 61% 29.85 in 10.0 mi West 12.7 mph - N/A   Clear
3:53 AM 30.9 °F 19.1 °F 21.9 °F 69% 29.86 in 10.0 mi West 18.4 mph - N/A   Clear
4:53 AM 30.0 °F 18.7 °F 21.0 °F 69% 29.87 in 10.0 mi West 16.1 mph - N/A   Clear
5:53 AM 30.9 °F 20.7 °F 21.0 °F 67% 29.88 in 10.0 mi West 13.8 mph - N/A   Clear
6:53 AM 30.9 °F 21.2 °F 19.0 °F 61% 29.91 in 10.0 mi SW 12.7 mph - N/A   Clear
7:53 AM 37.0 °F 28.5 °F 19.9 °F 50% 29.88 in 10.0 mi WSW 13.8 mph - N/A   Clear
8:53 AM 39.0 °F 31.0 °F 21.0 °F 49% 29.86 in 10.0 mi West 13.8 mph - N/A   Clear
9:53 AM 46.9 °F - 24.1 °F 41% 29.88 in 10.0 mi SSW 9.2 mph - N/A   Clear
10:53 AM 54.0 °F - 23.0 °F 30% 29.83 in 10.0 mi Variable 5.8 mph - N/A   Clear
11:53 AM 55.9 °F - 19.9 °F 25% 29.78 in 10.0 mi SSE 12.7 mph - N/A   Clear
12:53 PM 59.0 °F - 19.9 °F 22% 29.72 in 10.0 mi SSE 11.5 mph 18.4 mph N/A   Clear
1:53 PM 62.1 °F - 18.0 °F 18% 29.67 in 10.0 mi SSW 10.4 mph - N/A   Clear
2:53 PM 63.0 °F - 15.1 °F 16% 29.65 in 10.0 mi Calm Calm - N/A   Clear
3:53 PM 64.0 °F - 16.0 °F 16% 29.66 in 10.0 mi ENE 13.8 mph 18.4 mph N/A   Clear
4:53 PM 53.1 °F - 25.0 °F 34% 29.72 in 10.0 mi East 19.6 mph - N/A   Clear
5:53 PM 46.0 °F 39.6 °F 26.1 °F 46% 29.81 in 10.0 mi NE 15.0 mph - N/A   Clear
6:35 PM 46.0 °F 35.8 °F 26.1 °F 46% 29.90 in 1.5 mi NE 36.8 mph 49.5 mph N/A   Haze
6:39 PM 45.0 °F 34.7 °F 26.1 °F 48% 29.90 in 0.8 mi NE 33.4 mph 49.5 mph 0.00 in Rain Light Rain
6:45 PM 45.0 °F 35.2 °F 26.1 °F 48% 29.91 in 1.2 mi NE 29.9 mph 39.1 mph 0.00 in Rain Light Rain
6:48 PM 44.6 °F 35.1 °F 26.6 °F 49% 29.92 in 3.0 mi NE 27.6 mph 39.1 mph 0.00 in   Haze
6:53 PM 44.1 °F 34.2 °F 26.1 °F 49% 29.93 in 7.0 mi NE 28.8 mph 39.1 mph 0.00 in   Scattered Clouds
7:09 PM 41.0 °F 29.0 °F 26.1 °F 55% 29.97 in 1.8 mi NNE 35.7 mph 43.7 mph N/A   Haze
7:16 PM 37.9 °F 24.7 °F 28.0 °F 68% 29.98 in 0.8 mi NNE 35.7 mph 43.7 mph N/A   Haze
7:20 PM 37.0 °F 24.5 °F 28.0 °F 70% 29.99 in 1.2 mi NNE 29.9 mph 42.6 mph N/A   Haze
7:35 PM 35.1 °F 20.6 °F 25.0 °F 67% 30.02 in 1.5 mi NNE 36.8 mph 43.7 mph N/A   Haze
7:42 PM 34.0 °F 20.1 °F 23.0 °F 64% 30.03 in 2.0 mi NNE 31.1 mph 43.7 mph N/A   Haze
7:51 PM 33.8 °F 20.1 °F 23.0 °F 65% 30.04 in 5.0 mi NE 29.9 mph 39.1 mph N/A   Haze
7:53 PM 33.1 °F 19.8 °F 23.0 °F 66% 30.06 in 6.0 mi NE 26.5 mph 39.1 mph N/A   Haze
8:10 PM 32.0 °F 17.2 °F 18.0 °F 56% 30.07 in 5.0 mi NNE 32.2 mph 40.3 mph N/A   Haze
8:53 PM 30.0 °F 19.1 °F 15.1 °F 54% 30.15 in 10.0 mi NNE 15.0 mph 27.6 mph N/A   Clear
9:53 PM 28.9 °F 16.1 °F 7.0 °F 40% 30.18 in 10.0 mi NNE 19.6 mph 24.2 mph N/A   Overcast
10:53 PM 28.0 °F 14.6 °F -0.9 °F 29% 30.18 in 10.0 mi NNE 20.7 mph - N/A   Overcast
11:53 PM 27.0 °F 14.7 °F -2.0 °F 29% 30.18 in 10.0 mi NE 16.1 mph - N/A   Overcast